Location: Alafon
(8.4500°N, 4.2333°E)
Time: 08:49:28
(UTC+00:00)

A-11 Canister half - Pass Details

Date: 11 August 2021
Orbit: 1515 x 1685 km, 47.2° (Epoch: 21 September)

Event Time Altitude Azimuth Distance (km) Brightness Sun altitude
Rises 10:45:33 0° 212° (SSW) 4,650 11.4 73.3°
Reaches altitude 10° 10:48:36 10° 209° (SSW) 3,668 11.0 74.0°
Maximum altitude 10:57:42 65° 129° (SE) 1,658 10.7 75.9°
Drops below altitude 10° 11:06:59 10° 49° (NE) 3,741 11.4 77.9°
Sets 11:10:07 0° 47° (NE) 4,747 11.7 78.5°
